• In Kazakhstan
  • List of Countries
  • For 7 days
  • Water Temperature
  • Satellite Maps
  • Weather Map
  • News
  • Weather Widgets
  • user-avatar
    Login

    Hourly Weather Uige

    Today, 25 March, Monday

    Time Temperature Precipitation Wind Pressure Humidity
    00:00 +20°C° 0.7 mm 0 mps 691 mmHg 97%
    01:00 +20°C° 0 mm 0 mps 691 mmHg 97%
    02:00 +20°C° 0 mm 0 mps 690 mmHg 97%
    03:00 +19°C° 0 mm 0 mps 690 mmHg 97%
    04:00 +19°C° 0 mm 0 mps 690 mmHg 97%
    05:00 +20°C° 0 mm 0 mps 690 mmHg 97%
    06:00 +20°C° 0 mm 0 mps 690 mmHg 96%
    07:00 +23°C° 0 mm 1 mps 691 mmHg 95%
    08:00 +25°C° 0.1 mm 1 mps 691 mmHg 84%
    09:00 +28°C° 0.1 mm 1 mps 692 mmHg 73%
    10:00 +30°C° 0.1 mm 1 mps 693 mmHg 62%
    11:00 +31°C° 0.7 mm 1 mps 692 mmHg 62%
    12:00 +31°C° 0.7 mm 1 mps 692 mmHg 62%
    13:00 +32°C° 0.7 mm 1 mps 691 mmHg 62%
    14:00 +31°C° 1.4 mm 1 mps 691 mmHg 69%
    15:00 +29°C° 1.4 mm 1 mps 690 mmHg 75%
    16:00 +28°C° 1.4 mm 2 mps 690 mmHg 82%
    17:00 +27°C° 2 mm 2 mps 690 mmHg 87%
    18:00 +25°C° 2 mm 2 mps 690 mmHg 91%
    19:00 +23°C° 2 mm 2 mps 690 mmHg 96%
    20:00 +23°C° 0.3 mm 1 mps 690 mmHg 97%
    21:00 +22°C° 0.3 mm 1 mps 691 mmHg 98%
    22:00 +22°C° 0.3 mm 1 mps 691 mmHg 98%
    23:00 +22°C° 0 mm 1 mps 691 mmHg 99%

    Tomorrow, 26 March, Tuesday

    Time Temperature Precipitation Wind Pressure Humidity
    00:00 +22°C° 0 mm 1 mps 691 mmHg 99%
    01:00 +22°C° 0 mm 1 mps 691 mmHg 99%
    02:00 +22°C° 0 mm 1 mps 690 mmHg 99%
    03:00 +22°C° 0 mm 1 mps 690 mmHg 99%
    04:00 +22°C° 0 mm 1 mps 690 mmHg 98%
    05:00 +22°C° 0 mm 1 mps 691 mmHg 98%
    06:00 +23°C° 0 mm 1 mps 691 mmHg 97%
    07:00 +21°C° 0 mm 0 mps 691 mmHg 97%
    08:00 +25°C° 0 mm 1 mps 692 mmHg 87%
    09:00 +27°C° 0 mm 1 mps 693 mmHg 77%
    10:00 +29°C° 0 mm 1 mps 694 mmHg 67%
    11:00 +29°C° 1.3 mm 1 mps 693 mmHg 71%
    12:00 +30°C° 1.3 mm 1 mps 692 mmHg 74%
    13:00 +30°C° 1.3 mm 1 mps 691 mmHg 78%
    14:00 +29°C° 1.1 mm 1 mps 691 mmHg 78%
    15:00 +29°C° 1.1 mm 1 mps 690 mmHg 79%
    16:00 +29°C° 1.1 mm 1 mps 690 mmHg 80%
    17:00 +27°C° 1.7 mm 1 mps 690 mmHg 85%
    18:00 +25°C° 1.7 mm 1 mps 690 mmHg 90%
    19:00 +22°C° 1.7 mm 0 mps 691 mmHg 94%
    20:00 +21°C° 0.3 mm 0 mps 691 mmHg 95%
    21:00 +21°C° 0.3 mm 0 mps 691 mmHg 96%
    22:00 +20°C° 0.3 mm 0 mps 692 mmHg 97%
    23:00 +20°C° 0 mm 0 mps 692 mmHg 97%

    Day after tomorrow, 27 March, Wednesday

    Time Temperature Precipitation Wind Pressure Humidity
    00:00 +20°C° 0 mm 0 mps 691 mmHg 98%
    01:00 +20°C° 0 mm 0 mps 691 mmHg 98%
    02:00 +20°C° 0 mm 0 mps 691 mmHg 98%
    03:00 +20°C° 0 mm 0 mps 691 mmHg 99%
    04:00 +20°C° 0 mm 0 mps 690 mmHg 99%
    05:00 +20°C° 0.1 mm 0 mps 691 mmHg 98%
    06:00 +21°C° 0.1 mm 0 mps 692 mmHg 98%
    07:00 +21°C° 0.1 mm 0 mps 692 mmHg 97%
    08:00 +23°C° 0 mm 0 mps 693 mmHg 88%
    09:00 +25°C° 0 mm 0 mps 693 mmHg 78%
    10:00 +30°C° 0 mm 1 mps 694 mmHg 68%
    11:00 +31°C° 0 mm 1 mps 694 mmHg 61%
    12:00 +32°C° 0 mm 1 mps 693 mmHg 55%
    13:00 +33°C° 0 mm 1 mps 692 mmHg 48%
    14:00 +33°C° 0.1 mm 1 mps 692 mmHg 52%
    15:00 +32°C° 0.1 mm 1 mps 691 mmHg 56%
    16:00 +31°C° 0.1 mm 1 mps 691 mmHg 60%
    17:00 +29°C° 0.7 mm 1 mps 691 mmHg 69%
    18:00 +27°C° 0.7 mm 1 mps 691 mmHg 79%
    19:00 +24°C° 0.7 mm 1 mps 691 mmHg 89%
    20:00 +24°C° 0.3 mm 1 mps 692 mmHg 91%
    21:00 +24°C° 0.3 mm 1 mps 692 mmHg 94%
    22:00 +23°C° 0.3 mm 1 mps 692 mmHg 96%
    23:00 +23°C° 0 mm 1 mps 692 mmHg 97%

    28 March, Thursday

    Time Temperature Precipitation Wind Pressure Humidity
    00:00 +23°C° 0 mm 1 mps 692 mmHg 98%
    01:00 +23°C° 0 mm 1 mps 691 mmHg 99%
    02:00 +24°C° 0 mm 1 mps 691 mmHg 98%
    03:00 +24°C° 0 mm 1 mps 691 mmHg 97%
    04:00 +24°C° 0 mm 1 mps 691 mmHg 97%
    05:00 +24°C° 0.1 mm 1 mps 691 mmHg 97%
    06:00 +24°C° 0.1 mm 1 mps 692 mmHg 97%
    07:00 +24°C° 0.1 mm 1 mps 692 mmHg 96%
    08:00 +26°C° 0 mm 1 mps 693 mmHg 86%
    09:00 +28°C° 0 mm 1 mps 693 mmHg 76%
    10:00 +30°C° 0 mm 1 mps 694 mmHg 66%
    11:00 +31°C° 0.4 mm 1 mps 693 mmHg 63%
    12:00 +32°C° 0.4 mm 1 mps 692 mmHg 60%
    13:00 +33°C° 0.4 mm 1 mps 692 mmHg 56%
    14:00 +32°C° 0.4 mm 1 mps 691 mmHg 60%
    15:00 +31°C° 0.4 mm 1 mps 690 mmHg 63%
    16:00 +31°C° 0.4 mm 1 mps 690 mmHg 66%
    17:00 +27°C° 1.1 mm 0 mps 690 mmHg 74%
    18:00 +25°C° 1.1 mm 0 mps 690 mmHg 82%
    19:00 +23°C° 1.1 mm 0 mps 690 mmHg 90%
    20:00 +23°C° 0 mm 0 mps 691 mmHg 90%
    21:00 +22°C° 0 mm 0 mps 691 mmHg 91%
    22:00 +22°C° 0 mm 0 mps 692 mmHg 91%
    23:00 +22°C° 0.3 mm 0 mps 691 mmHg 92%

    29 March, Friday

    Time Temperature Precipitation Wind Pressure Humidity
    00:00 +22°C° 0.3 mm 0 mps 691 mmHg 92%
    01:00 +21°C° 0.3 mm 0 mps 691 mmHg 93%
    02:00 +23°C° 0.4 mm 1 mps 690 mmHg 93%
    03:00 +23°C° 0.4 mm 1 mps 690 mmHg 94%
    04:00 +23°C° 0.4 mm 1 mps 690 mmHg 95%
    05:00 +23°C° 0.1 mm 1 mps 690 mmHg 94%
    06:00 +23°C° 0.1 mm 1 mps 691 mmHg 94%
    07:00 +23°C° 0.1 mm 1 mps 691 mmHg 94%
    08:00 +25°C° 0.1 mm 1 mps 692 mmHg 85%
    09:00 +27°C° 0.1 mm 2 mps 692 mmHg 77%
    10:00 +29°C° 0.1 mm 2 mps 692 mmHg 68%
    11:00 +30°C° 0.7 mm 2 mps 692 mmHg 65%
    12:00 +31°C° 0.7 mm 1 mps 691 mmHg 61%
    13:00 +32°C° 0.7 mm 1 mps 691 mmHg 58%
    14:00 +30°C° 1.5 mm 2 mps 690 mmHg 68%
    15:00 +28°C° 1.5 mm 2 mps 690 mmHg 79%
    16:00 +26°C° 1.5 mm 2 mps 689 mmHg 90%
    17:00 +25°C° 0.4 mm 1 mps 690 mmHg 92%
    18:00 +25°C° 0.4 mm 1 mps 690 mmHg 93%
    19:00 +22°C° 0.4 mm 0 mps 690 mmHg 95%
    20:00 +22°C° 0.1 mm 0 mps 691 mmHg 95%
    21:00 +21°C° 0.1 mm 0 mps 691 mmHg 95%
    22:00 +21°C° 0.1 mm 0 mps 691 mmHg 95%
    23:00 +21°C° 0.1 mm 0 mps 691 mmHg 95%

    30 March, Saturday

    Time Temperature Precipitation Wind Pressure Humidity
    00:00 +21°C° 0.1 mm 0 mps 691 mmHg 95%
    01:00 +21°C° 0.1 mm 0 mps 690 mmHg 94%
    02:00 +21°C° 0 mm 0 mps 690 mmHg 95%
    03:00 +20°C° 0 mm 0 mps 690 mmHg 95%
    04:00 +20°C° 0 mm 0 mps 690 mmHg 95%
    05:00 +20°C° 0.1 mm 0 mps 690 mmHg 95%
    06:00 +22°C° 0.1 mm 1 mps 691 mmHg 96%
    07:00 +22°C° 0.1 mm 1 mps 691 mmHg 96%
    08:00 +24°C° 0 mm 1 mps 692 mmHg 92%
    09:00 +25°C° 0 mm 1 mps 692 mmHg 87%
    10:00 +26°C° 0 mm 2 mps 692 mmHg 83%
    11:00 +28°C° 0.7 mm 1 mps 692 mmHg 78%
    12:00 +29°C° 0.7 mm 1 mps 691 mmHg 74%
    13:00 +30°C° 0.7 mm 1 mps 691 mmHg 69%
    14:00 +30°C° 0.3 mm 1 mps 690 mmHg 68%
    15:00 +30°C° 0.3 mm 1 mps 690 mmHg 67%
    16:00 +30°C° 0.3 mm 1 mps 689 mmHg 65%
    17:00 +28°C° 0.3 mm 1 mps 690 mmHg 72%
    18:00 +26°C° 0.3 mm 1 mps 690 mmHg 78%
    19:00 +23°C° 0.3 mm 0 mps 690 mmHg 85%
    20:00 +22°C° 0 mm 0 mps 690 mmHg 86%
    21:00 +24°C° 0 mm 1 mps 691 mmHg 88%
    22:00 +23°C° 0 mm 1 mps 691 mmHg 89%
    23:00 +23°C° 0 mm 1 mps 690 mmHg 90%
    Show more